This demonstration page uses our WeatherBlox Daily Observations layout. Learn more.

Left ArrowRight Arrow

Hourly Observations for August 9, 2020

Temp ( °F °C ) Dew Point ( °F °C ) Humidity (%) Winds ( mph kmh ) Pressure ( in mb ) Visibility ( mi km ) Precip ( " mm )
12:51 am 00:51 Clear 82 27.8 47 8.3 29 29 E 5 7 29.8 1009 10 16.0934 0 0
1:51 am 01:51 Clear 81 27.2 48 8.9 32 32 E 8 13 29.8 1009 10 16.0934 0 0
2:51 am 02:51 Clear 83 28.3 47 8.3 28 28 NE 10 17 29.79 1009 10 16.0934 0 0
3:51 am 03:51 Clear 77 25 50 10 39 39 W 3 6 29.8 1009 10 16.0934 0 0
4:51 am 04:51 Clear 75 23.9 49 9.4 40 40 NNW 6 9 29.83 1010 10 16.0934 0 0
5:51 am 05:51 Sunny 75 23.9 48 8.9 39 39 Calm 29.84 1011 10 16.0934 0 0
6:51 am 06:51 Sunny 82 27.8 49 9.4 32 32 SSE 3 6 29.85 1011 10 16.0934 0 0
7:51 am 07:51 Sunny 89 31.7 48 8.9 24 24 ESE 8 13 29.86 1011 10 16.0934 0 0
8:51 am 08:51 Sunny 90 32.2 49 9.4 24 24 SE 8 13 29.87 1012 10 16.0934 0 0
9:51 am 09:51 Sunny 93 33.9 50 10 23 23 Calm 29.85 1011 10 16.0934 0 0
10:51 am 10:51 Sunny 95 35 50 10 22 22 VRB 6 9 29.85 1011 10 16.0934 0 0
11:51 am 11:51 Sunny 100 37.8 48 8.9 17 17 W 7 11 29.81 1010 10 16.0934 0 0
12:51 pm 12:51 Sunny 102 38.9 48 8.9 16 16 Calm 29.79 1009 10 16.0934 0 0
1:51 pm 13:51 Sunny 103 39.4 47 8.3 15 15 SSW 6 9 29.76 1008 10 16.0934 0 0
2:51 pm 14:51 Sunny 105 40.6 40 4.4 11 11 W 12 19 29.73 1007 10 16.0934 0 0
3:51 pm 15:51 Sunny 103 39.4 46 7.8 15 15 undefined N/A 29.72 1006 10 16.0934 0 0
4:51 pm 16:51 Sunny 103 39.4 44 6.7 13 13 WNW 6 9 29.72 1006 10 16.0934 0 0
5:51 pm 17:51 Sunny 103 39.4 43 6.1 13 13 W 10 17 29.71 1006 10 16.0934 0 0
6:51 pm 18:51 Sunny 102 38.9 44 6.7 14 14 WNW 8 13 29.7 1006 10 16.0934 0 0
7:51 pm 19:51 Clear 96 35.6 46 7.8 18 18 W 6 9 29.71 1006 10 16.0934 0 0
8:51 pm 20:51 Clear 93 33.9 43 6.1 18 18 WNW 9 15 29.74 1007 10 16.0934 0 0
9:51 pm 21:51 Clear 92 33.3 39 3.9 16 16 NW 13 20 29.75 1007 10 16.0934 0 0
10:51 pm 22:51 Clear 89 31.7 39 3.9 17 17 NW 10 17 29.75 1008 10 16.0934 0 0
11:51 pm 23:51 Clear 86 30 40 4.4 20 20 WNW 8 13 29.76 1008 10 16.0934 0 0

Powered by AerisWeather